Location: Brno
(49.2000°N, 16.6330°E)
Time: 17:27:32
(UTC+02:00)

Iridium 2 - Visible Passes

Search period start: 16 September 2014 00:00
Search period end: 26 September 2014 00:00
Orbit: 533 x 549 km, 85.5° (Epoch: 15 September)

Date Brightness Start Highest point End Pass type
(mag) Time Alt. Az. Time Alt. Az. Time Alt. Az.
16 Sep 7.3 05:03:20 10° NE 05:05:31 14° ENE 05:07:41 10° ESE visible
17 Sep 7.3 04:56:24 10° NE 04:58:32 14° ENE 05:00:39 10° ESE visible
18 Sep 7.2 04:49:27 10° NE 04:51:32 14° ENE 04:53:36 10° ESE visible
19 Sep 7.2 04:42:30 10° NE 04:44:31 14° ENE 04:46:32 10° E visible
20 Sep 7.2 04:35:32 10° NE 04:37:30 13° ENE 04:39:28 10° E visible
21 Sep 7.2 04:28:34 10° NE 04:30:29 13° ENE 04:32:23 10° E visible
21 Sep 3.8 06:02:57 10° NNW 06:06:50 62° W 06:10:41 10° S visible
22 Sep 7.2 04:21:35 10° NE 04:23:26 13° ENE 04:25:17 10° E visible
22 Sep 3.7 05:55:55 10° N 05:59:48 63° W 06:03:40 10° S visible
23 Sep 7.1 04:14:36 10° NE 04:16:23 13° ENE 04:18:10 10° E visible
23 Sep 3.7 05:48:52 10° N 05:52:46 65° W 05:56:37 10° S visible
23 Sep 7.8 19:51:26 10° WNW 19:51:55 10° WNW 19:52:25 10° WNW visible
24 Sep 7.1 04:07:37 10° NE 04:09:19 12° ENE 04:11:02 10° E visible
24 Sep 3.7 05:41:48 10° N 05:45:43 66° W 05:49:35 10° S visible
24 Sep 7.7 19:44:09 10° WNW 19:44:51 10° WNW 19:45:33 10° WNW visible
25 Sep 7.1 04:00:37 10° NE 04:02:15 12° ENE 04:03:53 10° E visible
25 Sep 3.7 05:34:44 10° N 05:38:39 68° W 05:42:31 10° S visible
25 Sep 7.6 19:36:54 10° W 19:37:46 11° WNW 19:38:38 10° NW visible
